Location: Hanover
(52.3667°N, 9.7167°E)
Time: 03:33:04
(UTC+01:00)

CUBESAT XI-V - Pass Details

Date: 18 November 2024
Orbit: 644 x 666 km, 98.3° (Epoch: 04 December)

Event Time Altitude Azimuth Distance (km) Brightness Sun altitude
Rises 17:01:07 0° 6° (N) 3,049 ? -5.8°
Reaches altitude 10° 17:03:47 10° 351° (N) 2,123 ? -6.2°
Maximum altitude 17:07:18 22° 302° (WNW) 1,469 ? -6.7°
Drops below altitude 10° 17:10:46 10° 252° (WSW) 2,093 ? -7.2°
Sets 17:13:22 0° 238° (WSW) 2,993 ? -7.6°
